Dewpoint
21 21 21 20 18 20 20 21 19 21 17 20 18 20 21 23 22 24 22 21 22 22 21 22 23 23 23 23 23 24 25 26 26 27 28 28 29 30 31 31 30 30 30 30 29 29 28 28 27 27 26 25 24 24 23 22 22 23 23 23 23 23 21 19 17 16 17 20 22 21 22 25 25 26 26 25 26 28 27 23 24 23 23 25 29
21 21 20 21 15 17 17 18 19 18 17 18 20 19 21 21 22 23 22 22 22 22 22 22 22 23 23 22 22 22 22 22 23 25 26 26 27 29 30 30 30 30 30 29 29 29 28 28 28 27 27 26 25 24 23 22 22 21 21 22 21 22 22 21 18 17 14 19 19 22 23 25 23 26 25 25 25 26 23 21 22 23 22 24 26
19 20 19 18 15 18 17 17 15 15 15 16 17 17 19 20 22 22 23 22 23 22 22 22 22 22 21 21 21 22 22 22 22 22 22 24 25 26 28 28 29 29 29 29 29 29 28 28 27 27 28 26 26 25 24 23 22 21 21 20 20 20 21 21 19 18 16 16 18 20 22 24 23 24 25 25 25 25 23 20 20 22 23 23 23
17 18 18 16 15 16 15 17 16 16 16 17 16 16 18 19 21 22 22 22 22 22 23 22 22 21 21 20 20 20 21 21 22 22 22 22 22 23 24 26 26 27 28 28 28 28 28 27 27 27 26 26 26 25 24 23 23 22 21 20 20 19 20 20 20 18 17 15 19 19 22 23 23 23 25 25 24 24 23 21 21 21 22 23 21
16 18 17 15 15 15 14 14 14 15 15 16 17 17 17 18 19 21 21 21 21 22 22 23 22 22 22 21 20 20 20 20 21 21 21 22 22 23 23 23 24 25 26 26 28 27 27 27 27 27 26 26 26 26 25 24 23 22 21 21 20 20 20 20 19 19 17 16 16 21 22 22 23 22 24 23 22 23 22 21 21 21 21 20 20
16 17 16 15 15 13 14 14 14 14 15 16 16 17 17 17 17 18 18 18 18 20 20 21 22 21 21 21 21 21 21 21 20 20 20 21 22 22 22 23 23 23 24 25 25 25 25 25 26 26 26 26 25 26 25 25 24 23 23 22 21 20 18 18 18 18 17 16 15 20 22 21 21 21 22 23 21 21 20 20 20 21 20 20 19
15 14 14 13 14 12 12 12 13 13 14 14 16 17 17 16 16 16 17 17 17 16 16 18 19 20 21 21 21 21 21 21 21 21 21 21 21 20 21 21 22 23 24 24 24 24 24 24 25 25 25 25 26 26 25 25 26 24 24 23 22 20 19 18 17 16 16 16 15 18 20 21 21 20 21 22 21 20 19 18 18 19 20 19 19
15 15 15 14 13 13 13 13 14 14 15 14 14 14 15 15 16 16 16 16 15 15 16 17 18 20 20 20 20 20 20 20 19 20 21 21 21 21 21 21 21 22 22 23 24 24 24 24 24 24 24 25 25 25 25 25 25 24 24 24 23 21 20 20 18 17 16 15 14 15 19 20 20 18 21 21 20 19 19 18 17 17 18 19 18
15 14 14 13 14 14 14 14 15 15 15 14 15 15 15 15 15 16 16 16 17 16 16 17 18 18 18 18 18 18 18 18 18 18 19 19 20 20 21 21 22 22 22 22 23 24 24 25 25 24 25 27 28 28 28 28 26 26 26 24 25 23 24 23 22 20 19 18 16 14 17 19 20 19 19 20 19 18 18 17 17 17 17 18 18
15 15 14 14 14 14 14 14 14 14 15 15 15 15 15 15 16 16 16 16 16 16 16 16 16 16 16 15 15 15 15 16 20 23 24 22 21 22 22 22 23 23 23 22 22 23 23 24 25 27 28 28 28 29 30 31 30 28 26 26 27 26 25 24 23 22 22 20 18 16 17 17 18 18 18 19 19 19 18 17 16 15 16 16 17
15 14 15 14 14 14 14 14 15 15 15 16 17 17 17 17 17 17 17 17 16 16 15 14 14 14 13 13 13 12 12 14 20 22 23 25 23 22 22 23 22 22 22 22 21 21 21 22 23 25 27 28 28 30 31 31 31 31 31 31 29 27 27 26 25 24 23 22 20 20 16 15 16 18 17 18 19 18 17 17 16 14 15 15 15
15 16 15 14 15 15 15 16 16 17 17 18 18 18 18 18 18 17 17 17 17 17 16 15 14 13 13 12 12 11 11 18 21 22 23 24 24 22 23 23 23 22 21 21 21 21 21 21 22 23 24 25 25 25 28 30 31 31 31 31 32 32 31 28 26 26 25 23 22 22 18 15 14 16 17 17 18 18 17 16 15 14 14 15 13
15 15 15 15 15 16 16 17 17 17 17 17 17 17 17 16 16 16 16 16 17 16 15 15 14 14 13 12 12 12 11 18 20 21 22 23 24 23 21 22 22 22 21 20 20 19 20 20 21 22 23 26 27 26 26 25 29 30 31 31 31 32 33 33 32 28 27 27 25 23 19 16 14 14 16 17 18 17 16 15 15 14 13 13 12
14 14 14 15 14 15 16 16 16 16 15 15 15 14 14 14 14 15 16 16 15 14 14 13 14 13 12 12 12 11 11 17 20 21 22 23 24 24 21 21 22 21 21 20 19 19 19 20 20 20 21 22 24 25 25 26 25 25 26 26 27 28 31 32 32 32 30 27 25 25 23 20 16 13 16 19 17 17 17 18 15 15 14 12 12
13 13 13 13 14 14 14 13 13 13 12 12 12 12 12 13 13 13 13 12 12 12 12 12 13 13 13 13 12 11 10 18 20 21 22 23 24 24 20 20 20 20 19 19 20 20 20 20 20 20 21 21 22 24 24 25 25 26 26 26 26 26 26 27 28 29 29 29 27 25 24 23 20 16 15 17 17 17 17 18 17 16 15 13 13
11 11 11 12 12 12 11 10 9 9 9 9 9 10 10 10 10 10 11 10 10 10 10 10 10 10 11 11 11 10 10 18 19 21 21 22 23 18 18 18 18 18 18 18 18 19 19 20 20 21 22 22 26 28 28 25 25 25 25 25 26 26 26 28 30 31 29 29 29 28 27 26 27 22 17 16 17 18 21 21 21 20 18 15 14
9 10 11 10 10 8 6 6 6 7 7 7 7 6 7 7 6 7 5 5 5 5 6 7 8 9 9 9 8 8 9 13 18 19 21 22 21 16 17 17 17 17 16 16 16 15 16 16 18 19 21 22 26 28 29 30 27 26 25 25 25 26 26 26 31 32 33 33 33 33 33 33 32 31 30 28 22 22 19 18 17 18 15 14 14
8 9 8 7 5 4 5 5 5 4 4 3 3 3 3 3 2 3 3 2 3 4 4 5 5 5 5 5 6 6 6 11 16 17 18 19 18 13 14 14 14 15 14 14 14 14 14 18 19 18 19 20 26 27 28 28 27 26 26 25 25 25 25 26 26 28 32 33 33 33 33 33 34 33 32 31 29 29 19 16 18 17 15 15 12
6 4 3 2 2 2 3 2 2 1 0 1 1 1 0 0 1 2 1 1 1 1 2 1 1 2 3 3 8 4 2 5 12 14 16 17 13 11 11 12 13 13 14 13 13 12 12 15 17 17 16 20 25 27 27 26 26 26 26 25 25 25 25 26 26 26 27 28 29 30 31 32 32 32 32 32 31 27 18 18 19 17 15 15 14
2 1 1 1 1 1 0 0 -0 -1 -1 -1 -0 -1 -0 -0 -1 -1 -1 -1 -1 -1 -1 -0 -1 -1 0 0 0 0 -0 -0 4 13 15 16 17 11 11 11 11 12 13 13 14 15 15 13 15 19 21 22 23 24 27 28 26 26 26 25 24 24 26 26 26 27 27 27 28 28 29 29 30 31 32 32 31 28 20 16 17 18 17 15 15
0 -0 -0 -1 -1 -1 -1 -2 -2 -2 -2 -2 -1 -1 -2 -2 -2 -2 -3 -2 -3 -3 -3 -2 -2 -2 -2 -1 -1 -0 -0 0 2 12 14 15 16 14 9 9 10 10 10 10 11 11 12 12 12 16 19 20 21 22 25 26 27 26 26 25 25 26 28 26 26 28 27 27 27 27 28 28 29 30 30 31 31 31 27 22 16 16 17 16 15
-1 -2 -2 -2 -3 -3 -3 -3 -3 -3 -3 -3 -3 -3 -3 -3 -3 -3 -3 -4 -4 -4 -4 -3 -4 -3 -3 -2 -1 -1 1 3 -0 8 12 14 15 15 9 9 11 10 10 11 12 12 11 12 12 15 19 20 20 21 21 24 26 26 26 30 29 30 28 27 26 26 27 27 26 26 26 27 27 28 29 29 30 30 30 28 22 18 16 16 16
-2 -3 -3 -4 -4 -4 -4 -5 -4 -4 -4 -4 -4 -5 -4 -4 -4 -4 -5 -5 -5 -5 -5 -5 -4 -4 -4 -3 -3 -2 -1 -0 7 3 10 13 14 14 14 13 15 10 10 10 10 10 10 11 13 18 19 20 21 22 23 23 23 23 28 30 31 31 30 27 27 26 26 26 26 26 26 26 26 26 27 27 28 29 29 30 28 24 21 20 18
-4 -4 -4 -5 -5 -5 -5 -5 -5 -5 -5 -5 -5 -5 -6 -6 -5 -5 -5 -5 -6 -6 -6 -5 -5 -5 -5 -5 -4 -4 -2 -2 4 8 5 12 13 15 15 16 15 9 8 7 7 6 6 6 9 15 18 20 23 23 23 23 21 24 26 27 30 31 30 28 27 26 26 26 25 25 25 26 25 25 26 27 27 28 28 28 28 27 24 24 21
-6 -6 -6 -6 -6 -6 -6 -6 -6 -6 -6 -5 -6 -6 -6 -6 -6 -6 -6 -6 -7 -7 -6 -6 -6 -6 -6 -5 -6 -5 -3 -3 -3 1 10 11 13 14 15 15 15 15 7 6 6 6 12 16 17 18 18 20 21 22 23 23 24 25 24 26 26 26 28 28 27 27 26 25 25 25 26 26 25 26 26 27 27 27 26 25 25 24 23 22 21
-7 -7 -7 -6 -6 -6 -6 -6 -6 -6 -6 -6 -6 -6 -6 -6 -7 -7 -7 -7 -7 -7 -7 -7 -7 -7 -7 -6 -6 -5 -4 -3 -3 -2 3 5 7 10 12 14 13 14 13 9 14 16 17 16 17 17 17 17 15 18 20 21 24 24 24 26 24 24 25 27 27 27 26 26 26 25 25 26 26 26 26 26 25 25 25 22 20 17 17 16 16
-7 -7 -7 -6 -6 -6 -7 -6 -6 -6 -6 -6 -6 -6 -6 -7 -7 -7 -7 -8 -8 -8 -8 -7 -7 -7 -6 -5 -4 -3 -2 -2 -1 -1 -0 -0 -0 2 2 3 10 12 6 4 9 6 6 9 10 16 17 18 19 20 20 21 23 23 21 21 22 22 23 25 26 27 26 26 26 25 26 26 26 25 24 24 24 24 25 21 19 17 16 16 15
-7 -7 -7 -7 -6 -6 -6 -5 -5 -6 -7 -7 -7 -7 -7 -7 -8 -8 -8 -8 -8 -7 -6 -6 -5 -4 -3 -2 -1 0 1 1 2 2 2 2 2 3 3 3 4 3 3 4 5 6 7 13 14 12 13 14 16 17 17 19 22 23 23 21 21 22 24 26 27 27 27 26 26 26 25 25 24 24 24 24 24 23 23 20 19 16 16 15 14
-7 -8 -7 -7 -7 -6 -6 -7 -7 -7 -7 -7 -7 -7 -8 -8 -7 -6 -5 -3 -3 -3 -1 1 3 4 4 3 3 3 3 3 4 11 8 14 9 8 8 8 7 6 9 15 11 12 12 13 13 13 13 14 14 14 15 17 20 23 24 24 23 23 23 24 25 26 27 27 26 26 25 24 24 23 23 22 22 22 22 20 19 17 15 16 15
-8 -8 -7 -7 -7 -7 -7 -7 -7 -7 -7 -8 -8 -8 -3 7 5 1 -0 7 12 13 13 6 6 6 6 6 7 6 5 6 15 17 16 16 16 16 15 15 16 13 14 17 14 10 10 11 11 11 12 12 12 13 14 16 19 20 22 25 24 23 23 24 24 25 26 27 26 26 25 24 23 22 22 21 21 21 20 21 18 16 14 14 15
-7 -7 -7 -7 -6 -6 -6 -7 -7 -7 -7 -7 -7 -7 -8 -6 6 10 11 10 12 13 14 15 15 15 9 7 9 15 16 17 16 16 16 15 14 15 16 18 18 18 18 13 11 10 10 10 10 11 12 12 12 12 14 15 17 19 19 21 21 23 23 23 24 25 26 26 26 26 25 24 23 21 21 20 20 19 18 18 17 15 15 14 14
-8 -8 -7 -7 -6 -6 -7 -7 -7 -7 -7 -7 -7 -7 -8 -8 -8 3 9 10 11 12 13 14 14 15 15 13 9 7 12 16 16 15 15 15 16 16 18 19 18 18 19 19 12 11 11 10 11 11 12 12 12 13 14 14 16 17 19 19 20 22 22 23 24 25 26 26 26 25 25 24 22 21 20 19 18 17 16 16 15 14 14 14 13
-8 -8 -7 -7 -6 -6 -6 -7 -7 -7 -8 -8 -8 -7 -8 -8 -8 -8 -5 7 10 11 12 12 13 13 14 15 15 15 15 15 16 16 16 15 16 17 18 18 18 19 18 14 12 11 11 10 10 10 10 11 11 12 12 13 15 17 20 20 20 21 22 24 25 24 25 26 26 25 24 23 22 20 19 18 16 15 14 14 13 13 13 13 12
-9 -8 -7 -7 -7 -7 -7 -7 -7 -7 -7 -7 -7 -7 -7 -7 -7 -7 -7 -6 -5 2 7 9 11 12 13 14 15 15 16 15 16 16 16 16 17 18 18 14 19 19 17 12 11 11 11 11 11 11 11 11 11 12 13 13 14 17 19 19 19 19 21 24 24 24 25 25 25 24 23 22 20 19 17 16 15 14 13 13 12 12 12 12 11
-8 -7 -6 -6 -7 -7 -7 -7 -7 -7 -7 -7 -7 -7 -6 -5 -5 -5 -6 -6 -6 -6 -6 -5 4 11 6 9 13 15 15 16 17 17 16 17 17 18 18 11 10 10 10 10 11 11 11 11 11 11 11 11 12 12 13 13 14 15 17 20 20 20 20 21 22 23 25 24 24 23 22 20 19 18 16 15 14 13 12 12 11 11 11 12 11
-9 -8 -7 -7 -7 -7 -7 -7 -7 -7 -7 -7 -5 -5 -5 -5 -5 -5 -5 -5 -5 -6 -5 -4 -3 7 11 12 13 13 14 15 16 17 17 17 18 17 10 10 10 10 11 11 11 12 13 13 12 12 11 11 11 10 11 11 12 13 17 19 20 20 21 22 22 23 23 23 23 22 21 19 18 17 16 14 13 13 12 11 11 11 11 11 11
-8 -7 -7 -7 -7 -7 -7 -7 -7 -6 -1 -4 -4 -5 -5 -5 -5 -5 -5 -5 -5 -5 -4 -4 -3 -2 4 1 3 11 13 14 16 17 17 17 17 12 9 9 9 9 11 12 13 14 14 15 15 14 13 12 11 11 12 12 14 16 20 20 20 20 21 22 22 22 22 22 21 20 19 18 18 17 15 13 13 12 12 11 11 11 11 11 11
-9 -8 -7 -7 -6 -6 -6 -6 -6 -5 -5 -5 -5 -5 -5 -6 -5 -5 -5 -5 -4 -4 -4 -4 0 -2 -2 -1 4 3 4 12 13 12 12 12 8 8 9 9 9 9 9 9 11 13 14 14 15 16 14 13 12 12 12 13 14 16 17 19 20 20 21 21 22 22 21 21 20 19 18 18 17 16 14 13 12 11 11 10 10 10 10 11 10
-8 -7 -6 -6 -2 -5 -6 -6 -7 -7 -7 -6 -6 -6 -6 -6 -6 -6 -5 -5 -5 -5 -4 -3 -3 -2 -2 -1 -1 4 6 2 1 1 1 2 3 4 4 4 5 5 6 7 9 11 12 13 16 17 15 14 14 14 15 16 18 19 20 21 20 19 20 21 20 21 20 19 18 17 17 16 16 15 14 13 12 11 10 10 10 10 9 9 9
-9 -9 -8 -6 -7 -7 -6 -6 -7 -7 -7 -7 -7 -6 -6 -6 -6 -5 -5 -5 -5 -4 -4 -3 -2 -2 -1 -1 1 4 2 -0 -2 -2 -2 -1 0 1 1 2 2 2 3 4 6 8 10 12 16 18 17 16 16 17 18 18 19 19 20 19 17 17 19 20 19 19 18 17 16 15 15 14 14 13 12 12 11 10 9 9 9 9 9 9 8
-10 -9 -8 -6 -7 -8 -8 -8 -8 -7 -7 -7 -7 -7 -7 -6 -5 -5 -5 -5 -5 -5 -4 -3 -3 -3 -2 0 10 9 2 -3 -5 -4 -3 -3 -2 -2 -1 -1 0 1 2 3 4 5 7 10 14 15 17 18 19 19 19 19 19 18 17 16 16 17 17 17 17 17 16 15 14 13 13 12 12 11 11 10 12 10 9 9 9 8 8 8 8
-10 -9 -9 -9 -9 -9 -9 -9 -8 -7 -7 -7 -7 -7 -6 -6 -6 -6 -6 -6 -5 -4 -4 -5 -5 -4 0 8 8 9 -1 -5 -5 -5 -5 -4 -4 -4 -3 -3 -2 -1 0 1 3 4 6 8 11 12 12 12 14 15 15 16 15 15 14 14 14 14 14 14 14 13 13 13 12 12 11 11 11 10 10 12 9 8 8 8 8 8 7 7 7
-9 -9 -9 -9 -10 -10 -10 -9 -8 -9 -8 -8 -7 -6 -6 -7 -7 -7 -7 -6 -6 -5 -6 -6 -6 -5 -5 4 0 2 -5 -6 -5 -6 -6 -6 -6 -5 -5 -4 -4 -2 -1 -0 2 4 5 7 8 9 10 11 11 12 13 13 13 14 14 13 13 12 12 11 11 11 10 10 10 10 10 10 10 9 9 8 8 7 7 7 7 7 7 7 6
-10 -10 -10 -10 -10 -10 -10 -10 -10 -9 -9 -7 -7 -7 -7 -7 -8 -8 -8 -8 -7 -6 -6 -6 -6 -6 -6 -5 -4 -6 -7 -7 -7 -7 -7 -6 -6 -6 -6 -6 -5 -4 -2 -1 -0 2 3 4 6 6 8 9 10 11 11 12 12 12 12 11 10 10 10 9 9 9 9 9 8 9 9 9 8 8 7 7 7 6 6 6 6 6 6 6 6
-13 -13 -12 -12 -12 -12 -11 -10 -9 -9 -8 -8 -10 -10 -9 -9 -9 -9 -8 -8 -7 -7 -6 -6 -6 -6 -6 -7 -6 -6 -7 -7 -6 -6 -7 -7 -7 -6 -6 -6 -5 -5 -4 -3 -2 -1 -0 0 2 3 4 5 6 7 8 9 10 10 10 10 9 9 8 8 8 9 9 8 8 8 8 7 7 7 6 6 6 6 5 5 5 6 5 5 5
-13 -13 -13 -13 -12 -11 -11 -12 -9 -11 -11 -11 -11 -12 -11 -10 -10 -9 -8 -8 -7 -7 -7 -6 -6 -6 -6 -7 -6 -6 -7 -7 -7 -7 -6 -6 -6 -6 -6 -5 -5 -5 -4 -4 -3 -3 -2 -2 -1 -1 0 2 2 4 5 6 7 7 8 8 8 8 8 8 8 8 8 8 8 7 7 7 6 6 6 6 6 5 5 5 5 5 5 5 5
-15 -14 -13 -13 -13 -12 -12 -11 -12 -12 -12 -12 -12 -12 -11 -11 -10 -9 -9 -8 -8 -7 -7 -7 -7 -8 -7 -7 -6 -6 -6 -6 -6 -6 -6 -6 -6 -6 -6 -6 -5 -5 -5 -4 -4 -4 -3 -3 -2 -2 -1 0 1 2 3 4 5 6 6 7 7 7 7 7 8 8 8 8 8 7 6 6 5 5 5 5 5 5 5 5 5 4 4 5 5
-16 -15 -15 -13 -15 -14 -14 -14 -14 -11 -13 -13 -13 -12 -11 -11 -11 -11 -11 -10 -10 -9 -8 -8 -8 -8 -7 -7 -6 -7 -6 -6 -6 -6 -6 -6 -6 -6 -6 -6 -5 -5 -5 -4 -3 -3 -3 -3 -3 -2 -2 -1 -0 1 2 4 4 5 6 6 6 7 7 7 7 7 8 7 7 7 6 5 5 5 5 5 5 4 4 4 4 4 4 5 5
-16 -16 -16 -15 -16 -15 -15 -15 -14 -15 -15 -14 -14 -14 -13 -13 -12 -12 -12 -11 -11 -10 -9 -9 -9 -9 -9 -8 -8 -8 -8 -7 -8 -8 -7 -7 -7 -6 -6 -6 -5 -5 -5 -4 -3 -2 -1 -1 -1 -1 -1 -0 0 1 2 3 4 5 6 6 7 8 8 7 7 7 7 7 6 6 6 5 5 5 4 4 4 4 4 4 4 4 4 5 5
-18 -16 -17 -17 -17 -16 -15 -16 -17 -17 -16 -15 -15 -15 -14 -14 -14 -13 -12 -12 -12 -11 -11 -10 -10 -11 -10 -10 -9 -9 -9 -9 -9 -9 -8 -8 -8 -7 -7 -7 -7 -6 -6 -5 -4 -3 -2 -0 1 1 1 1 1 2 2 3 4 5 5 6 7 7 7 7 7 6 6 5 5 5 5 5 4 4 4 4 4 3 3 3 3 3 3 3 3
-16 -17 -17 -18 -17 -17 -18 -19 -18 -18 -18 -17 -17 -17 -15 -16 -15 -14 -13 -14 -14 -13 -11 -12 -12 -11 -11 -11 -9 -10 -10 -10 -10 -10 -10 -9 -9 -8 -8 -8 -8 -8 -8 -7 -7 -5 -4 -3 -1 0 2 3 3 3 4 4 5 5 5 6 6 6 6 6 6 6 6 5 5 4 4 4 3 3 3 3 3 3 3 3 3 2 2 2 2